Location: F?ge?el
(45.8833°N, 22.5833°E)
Time: 05:22:06
(UTC+00:00)

Cosmos 304 Rocket - Pass Details

Date: 17 November 2025
Orbit: 668 x 677 km, 74.0° (Epoch: 04 December)

Event Time Altitude Azimuth Distance (km) Brightness Sun altitude
Rises 16:27:24 0° 178° (S) 3,000 7.2 -15.8°
Reaches altitude 10° 16:29:47 10° 171° (S) 2,092 6.3 -16.2°
Maximum altitude 16:34:08 38° 103° (ESE) 1,021 4.2 -16.9°
Enters shadow 16:35:31 31° 66° (ENE) 1,179 4.4 -17.2°
